Theta_e
343 342 339 334 331 332 333 334 333 333 333 334 335 334 333 332 332 332 332 331 330 331 333 334 335 336 335 334 333 332 332 333 333 333 334 334 334 333 333 332 331 329 330 333 334 335 335 333 333 333 333 333 333 333 333 332 332 333 333 332 332 331 330 330 329 328 328 327 327 326 325 323 321 320 318 316 315 313 312 311 311 310 309 305 302
342 343 342 340 335 332 332 334 333 334 334 334 335 336 335 334 333 333 333 332 330 330 332 334 335 337 336 335 334 333 333 333 333 334 334 335 335 333 333 334 334 332 330 332 333 335 335 334 333 333 333 333 333 333 333 333 333 333 333 333 332 331 331 330 329 328 328 327 327 326 325 324 321 319 317 315 314 312 312 311 310 310 308 304 302
334 340 344 343 342 338 335 335 335 334 335 335 336 336 337 336 335 334 333 332 331 331 332 333 335 337 337 336 335 334 334 334 334 334 334 335 335 335 334 335 335 334 332 331 332 334 335 335 334 333 333 334 334 334 334 333 333 333 332 332 332 331 331 329 328 327 327 327 326 326 325 324 322 319 316 314 312 312 311 310 310 309 306 303 302
329 333 339 342 343 344 342 340 338 338 337 336 337 338 339 338 337 336 334 333 333 332 333 334 335 337 338 337 337 336 335 335 335 335 335 335 335 336 336 335 335 335 333 331 332 334 335 335 335 334 334 334 334 334 334 334 332 330 330 330 330 330 330 329 327 327 327 326 326 325 325 323 321 318 315 312 311 311 310 310 310 308 305 303 303
332 329 333 336 338 341 344 343 341 340 339 338 338 339 340 339 338 338 337 335 334 334 335 336 336 337 338 338 337 336 336 336 336 336 335 335 336 336 336 336 336 335 334 332 331 333 335 335 335 334 334 334 334 334 334 333 331 328 328 328 327 328 329 328 327 327 327 327 326 325 324 321 318 315 313 311 311 310 310 310 310 307 304 304 303
337 335 337 340 337 335 340 344 344 343 341 340 340 339 339 340 339 339 338 337 336 337 337 337 338 338 338 338 338 337 337 337 337 336 336 336 336 337 337 337 336 336 334 333 332 332 334 335 335 335 334 334 334 334 334 332 330 328 327 327 327 327 327 327 327 327 327 327 327 325 323 320 317 314 312 311 310 310 310 310 309 306 304 304 303
339 338 338 340 339 337 336 337 342 344 342 339 339 340 340 340 340 338 337 338 338 338 339 339 339 339 339 339 339 339 339 339 338 337 337 337 336 337 337 337 337 336 335 333 332 333 333 335 336 335 334 334 334 334 333 332 330 328 328 328 327 327 327 327 327 327 327 327 326 323 320 318 316 314 313 312 311 311 311 309 306 304 304 304 304
333 336 336 335 335 338 336 332 337 343 342 338 338 339 339 340 339 338 338 339 339 340 340 340 340 341 341 340 340 340 340 340 340 339 338 338 337 337 337 337 337 337 336 335 334 333 334 334 336 336 335 334 334 334 334 332 330 329 328 328 328 328 328 328 327 327 326 325 323 320 317 316 315 314 312 312 312 312 311 308 305 304 304 304 304
325 328 331 329 328 332 334 334 338 343 342 340 339 339 338 338 337 337 338 339 339 341 342 342 342 342 342 341 341 341 341 341 340 340 338 338 338 337 337 337 337 338 337 336 336 335 334 334 335 336 335 334 334 334 333 332 330 329 328 328 328 328 328 327 326 326 326 323 319 317 315 315 314 313 313 313 313 312 310 307 305 304 304 304 304
321 322 324 324 323 324 328 332 337 341 341 341 340 339 339 338 338 338 338 338 340 341 343 344 344 343 342 342 341 342 342 341 340 340 339 339 339 338 338 337 338 338 338 338 337 336 335 335 336 336 336 335 335 334 333 332 330 329 328 328 328 328 328 327 326 326 325 320 315 314 315 314 313 312 312 312 312 310 307 305 304 304 304 304 304
320 320 321 322 322 323 326 330 336 340 342 342 341 340 340 339 340 340 340 339 339 341 344 345 344 344 343 343 342 342 341 340 339 339 339 339 340 339 338 337 338 339 339 338 338 337 336 336 336 337 336 335 335 334 333 332 330 329 328 328 328 328 327 327 326 325 323 317 312 312 312 312 311 311 311 311 310 308 307 306 305 304 304 304 304
321 321 322 324 324 326 330 335 339 342 344 343 341 341 341 340 340 341 342 341 341 342 344 344 344 344 344 343 343 342 340 337 336 338 339 339 340 340 339 338 338 338 339 339 338 338 337 336 337 337 336 336 335 334 333 332 330 329 328 328 328 327 327 326 324 323 321 316 311 309 309 309 309 309 309 309 307 306 307 306 304 304 304 304 303
322 322 323 324 326 327 329 332 335 337 338 339 339 339 340 341 341 341 342 342 343 343 343 343 343 344 344 344 344 342 339 335 335 338 339 339 340 341 340 339 338 338 338 338 338 338 337 337 337 336 336 336 335 334 333 332 330 329 329 328 327 326 325 324 322 321 318 314 310 308 306 306 306 306 306 305 305 306 307 306 305 305 304 304 303
321 322 322 322 323 325 326 327 329 330 331 333 334 336 338 340 340 341 341 342 343 343 343 343 344 344 344 344 344 343 340 335 334 337 339 339 340 341 341 339 338 338 338 338 338 337 337 337 337 336 336 336 335 335 333 332 330 330 329 328 326 324 323 322 322 319 315 311 309 307 306 305 304 303 303 303 305 306 306 306 306 305 305 305 303
318 319 320 321 322 323 324 325 326 328 330 331 333 336 338 340 341 341 341 340 340 340 340 341 342 343 344 344 344 344 342 336 333 335 338 339 341 341 341 340 339 339 339 339 338 338 337 337 337 336 336 336 335 335 334 332 331 330 330 328 325 323 323 322 321 317 313 309 307 306 305 305 303 301 301 303 305 306 306 306 306 306 306 306 304
315 316 317 318 320 321 323 324 323 325 328 331 332 333 336 338 340 341 341 340 337 336 336 338 340 342 343 343 344 345 343 337 333 334 337 340 342 342 341 340 340 340 339 339 339 338 338 337 337 337 336 336 336 335 334 332 331 331 330 328 325 323 322 322 320 315 311 308 306 305 304 303 301 301 302 304 306 306 306 307 307 306 307 306 303
315 315 315 317 318 319 321 322 321 320 323 327 330 331 332 333 335 337 338 339 339 339 339 339 341 342 343 343 343 344 344 339 333 332 336 340 342 342 342 340 340 340 340 339 339 339 338 338 337 337 336 336 336 335 334 332 331 331 330 328 325 322 321 321 319 313 309 307 306 305 303 302 300 301 304 305 306 306 306 307 306 306 307 306 302
316 316 315 316 317 318 319 321 320 318 319 323 326 328 329 330 330 331 332 334 336 340 342 342 343 342 343 343 344 344 343 340 336 335 336 340 342 342 342 341 341 340 340 339 339 339 338 338 337 337 336 336 335 334 333 333 332 331 330 328 325 323 322 321 318 313 308 305 304 304 302 301 300 302 304 305 306 306 306 306 306 306 306 305 301
317 317 316 317 317 318 319 319 318 318 320 322 323 325 327 329 329 329 329 328 329 332 336 340 343 343 343 343 344 344 343 340 339 339 339 340 342 342 342 341 340 340 340 339 339 338 338 338 337 337 336 336 335 334 333 333 331 331 330 328 325 324 322 321 318 313 308 305 303 302 301 300 301 302 303 304 306 306 306 306 305 306 305 303 299
320 319 318 317 317 317 318 318 318 319 321 323 323 324 327 330 330 330 329 329 329 329 329 331 336 340 343 344 344 344 343 342 341 341 341 341 342 342 342 341 340 340 340 339 338 338 338 338 338 337 337 336 335 335 334 333 332 331 331 329 327 325 323 321 318 313 308 305 303 301 300 300 301 302 303 304 306 307 307 306 306 304 303 301 298
323 322 320 318 318 318 318 319 320 321 322 323 325 327 330 331 332 332 332 330 330 331 331 331 330 331 335 340 342 342 343 342 341 341 342 342 342 342 342 341 340 340 339 339 339 338 338 338 338 337 336 336 335 335 334 333 332 331 331 330 328 326 323 321 318 314 309 306 303 301 300 299 300 302 302 303 305 307 307 307 305 302 300 298 297
322 322 321 320 318 318 318 320 321 321 320 322 326 329 330 330 329 330 331 332 331 331 333 335 334 331 331 335 339 341 342 342 341 341 340 341 343 343 342 341 341 341 340 339 339 338 338 338 338 337 336 336 336 336 334 333 332 331 331 331 329 326 323 321 318 314 310 307 304 301 300 299 300 301 302 303 305 306 306 306 303 299 297 296 297
323 323 323 321 319 317 317 319 321 321 321 322 324 325 326 326 326 325 327 330 332 331 331 332 334 334 334 333 335 338 340 341 341 337 335 337 340 342 342 342 341 341 340 339 339 339 338 338 338 337 336 336 336 336 335 333 331 330 331 331 329 326 323 320 317 314 311 308 304 302 300 299 299 300 301 302 302 303 303 302 300 297 296 297 296
325 324 324 322 320 319 319 320 322 324 325 325 326 326 326 327 327 327 328 330 333 333 332 331 331 332 333 333 334 335 336 338 340 335 331 333 337 339 342 343 342 341 341 340 340 339 338 338 338 337 336 336 336 336 335 334 332 330 330 331 329 325 322 318 316 314 312 309 305 302 300 299 299 299 300 301 301 300 300 299 298 297 296 296 296
323 323 323 321 320 319 321 323 324 325 327 328 328 328 327 326 326 328 330 331 333 333 333 332 331 331 332 334 335 333 331 334 337 337 335 334 333 335 339 342 342 342 341 340 340 340 338 338 338 337 337 337 336 336 335 335 334 332 331 331 328 324 321 318 315 313 311 309 306 302 299 298 298 299 301 302 301 299 299 298 297 296 296 296 297
322 322 321 319 319 320 322 325 328 330 330 330 330 328 326 324 323 325 327 331 333 333 333 332 331 331 332 333 334 333 330 330 332 335 339 339 333 331 336 340 342 342 342 341 340 340 339 339 338 338 338 337 337 336 335 334 334 333 332 331 328 323 320 318 315 312 311 309 306 302 299 299 298 299 301 301 300 298 297 297 296 296 296 298 300
321 320 319 320 322 323 324 326 329 331 331 329 328 327 325 323 322 322 325 329 331 332 333 333 332 331 332 332 333 333 332 330 329 331 336 339 337 335 337 341 342 341 341 340 339 339 339 339 339 337 337 337 336 336 334 333 333 333 332 330 327 323 320 317 313 310 308 306 303 301 300 299 298 299 300 300 298 297 297 296 296 297 299 301 302
320 320 322 324 325 325 326 327 328 328 327 326 325 324 323 322 323 322 324 327 329 331 331 332 332 332 332 332 333 334 334 333 330 327 328 333 336 338 339 340 341 342 341 339 338 337 337 338 337 335 334 334 334 334 333 332 331 331 331 330 326 321 318 315 311 307 304 302 301 300 300 299 298 300 300 298 297 297 296 296 298 301 303 304 303
323 324 325 326 326 326 326 327 327 325 324 324 324 323 323 323 325 326 326 328 330 332 331 331 331 331 331 332 333 333 334 333 331 329 326 325 329 335 338 339 339 341 341 339 337 336 336 336 335 333 332 332 332 332 332 331 330 329 328 327 324 320 316 313 309 305 302 300 300 300 299 298 299 300 299 297 297 297 297 299 301 303 304 304 304
325 325 326 326 326 327 327 327 326 325 325 326 326 326 326 326 328 329 329 329 331 332 331 331 330 330 331 332 331 332 333 332 331 330 328 325 325 331 337 338 336 337 339 340 338 336 335 335 334 333 332 332 332 333 332 331 330 329 327 326 324 320 315 312 308 304 302 301 300 299 298 298 300 300 299 298 298 297 298 301 303 304 304 305 304
324 324 325 326 326 326 327 326 325 326 327 329 329 329 328 328 328 329 329 330 331 331 331 330 330 330 330 331 331 330 331 331 331 329 328 326 325 328 333 335 333 334 337 339 338 336 334 334 335 334 333 332 333 334 333 331 330 330 328 326 324 318 314 313 310 304 301 301 300 298 299 300 301 300 299 299 298 298 300 303 304 304 304 304 304
322 322 324 325 325 325 325 325 325 326 327 328 328 328 328 328 328 328 329 330 330 331 331 330 330 329 330 330 331 331 330 330 330 328 326 326 325 327 331 333 332 334 338 339 338 337 335 334 334 334 334 334 334 333 333 332 330 329 328 327 324 319 316 316 312 306 302 301 299 299 300 301 301 301 300 299 298 299 301 303 304 304 304 304 303
320 321 322 324 324 323 324 325 324 325 326 326 326 327 327 328 328 327 327 328 329 330 331 331 331 330 331 331 331 331 330 329 329 328 327 326 325 327 332 334 334 335 337 337 337 337 337 336 336 334 334 335 334 333 333 331 330 329 328 327 327 324 318 314 310 305 302 301 300 300 301 302 302 302 301 299 298 300 302 303 303 303 303 303 303
317 319 320 321 322 322 323 323 323 324 325 325 325 326 327 327 327 326 326 326 328 328 329 330 331 331 331 332 332 332 331 331 330 329 329 329 328 328 332 335 335 334 335 336 336 335 335 335 335 334 334 335 334 333 332 331 330 329 328 327 326 323 317 313 311 307 303 301 301 301 302 302 302 302 300 299 300 301 303 303 303 303 303 303 303
314 317 318 319 320 321 322 322 323 324 324 325 325 326 326 326 326 326 326 327 328 328 329 329 330 330 331 331 332 332 332 332 331 331 331 331 331 332 333 334 335 334 334 335 335 335 334 334 334 335 336 335 333 332 331 330 329 329 328 327 325 320 315 313 312 309 304 302 302 302 302 302 302 302 300 300 301 302 302 303 303 303 303 302 302
312 314 316 317 318 320 320 321 322 323 324 325 325 326 327 327 326 327 327 328 328 328 328 329 329 330 330 331 332 332 332 331 331 332 332 332 333 333 333 334 335 335 335 335 334 333 333 333 333 335 335 334 332 331 330 330 329 328 327 326 322 317 314 313 313 311 307 303 301 302 303 303 302 301 300 300 302 302 302 302 303 302 302 302 302
311 312 314 315 316 317 318 319 320 322 323 324 325 325 326 326 326 326 327 327 328 328 328 328 329 329 329 330 332 333 333 332 332 332 332 332 333 334 334 334 334 334 335 335 334 333 331 330 332 334 334 332 331 330 329 329 328 327 326 323 318 314 315 316 316 314 312 306 302 301 302 302 302 301 300 300 303 304 303 302 302 302 301 302 302
311 311 312 313 314 315 316 317 317 319 321 322 323 324 325 325 325 325 327 328 328 328 328 328 328 328 328 329 330 331 333 333 333 332 331 331 332 333 334 334 333 333 334 335 335 334 332 330 331 332 332 331 330 329 328 327 326 325 325 321 317 315 318 319 315 313 313 311 305 302 301 301 301 301 300 301 303 305 304 303 302 301 301 302 302
312 312 312 314 315 316 316 316 316 317 319 320 321 321 322 323 324 326 327 327 327 328 328 328 328 328 328 328 329 330 331 333 333 333 332 331 330 331 333 334 333 332 333 334 335 334 333 331 331 331 331 330 329 329 327 325 325 325 324 320 317 317 319 319 315 313 314 313 308 302 301 301 301 300 299 301 303 305 305 305 304 302 302 302 301
312 312 312 314 316 316 316 316 316 316 317 318 318 319 320 321 323 324 325 326 326 327 327 327 327 328 328 328 328 329 330 331 332 333 333 332 330 329 331 332 333 332 333 334 335 335 333 332 331 331 331 330 329 328 327 325 324 324 323 320 318 319 320 320 317 315 315 313 308 303 301 301 301 299 298 300 303 305 305 305 304 303 302 302 301
312 312 313 314 315 315 316 315 315 315 316 316 316 317 318 319 320 322 323 324 325 325 326 326 326 326 327 327 327 328 328 329 330 331 332 333 331 330 331 332 332 332 333 333 334 334 333 332 332 332 331 330 329 328 327 325 324 323 322 321 319 319 320 320 317 314 313 311 306 302 301 302 301 299 297 298 301 303 304 304 304 304 303 303 302
312 312 312 313 313 313 314 314 314 314 315 315 315 315 316 316 317 319 321 321 322 323 324 325 324 324 325 325 325 325 325 326 327 329 330 331 330 330 331 331 331 331 333 334 334 334 333 332 333 332 331 329 328 327 327 326 325 324 322 320 319 319 320 320 317 314 312 309 305 303 302 302 301 299 298 299 302 305 306 306 306 305 304 303 303
312 312 312 312 312 312 312 313 313 314 315 315 315 314 314 314 315 316 317 318 319 321 322 322 322 322 323 323 323 323 323 324 324 325 326 327 328 328 329 328 329 330 332 332 331 330 330 331 331 331 329 328 328 328 328 327 326 325 323 320 318 319 320 319 316 314 312 309 305 303 302 302 301 300 300 303 306 307 307 306 306 305 305 304 303
312 313 312 311 311 312 312 312 312 313 314 314 314 314 314 314 314 314 315 315 316 317 318 319 319 319 320 320 321 321 322 323 323 323 323 325 326 327 327 325 324 326 328 330 329 328 328 329 329 328 328 328 328 328 327 326 325 325 323 320 318 319 320 319 316 313 311 307 305 304 304 304 303 302 304 306 307 307 307 306 306 304 303 303 302
311 312 312 311 311 311 311 311 312 312 313 314 314 315 314 314 313 313 313 313 313 314 314 315 316 316 317 317 318 319 319 320 321 322 322 324 326 326 325 323 322 323 326 329 329 328 328 327 326 326 327 328 328 327 326 325 323 322 321 319 318 319 320 318 315 313 311 308 307 308 308 307 306 306 306 307 307 307 307 307 305 304 303 302 302
310 312 312 311 311 310 310 310 310 311 312 313 313 313 313 313 312 312 312 312 312 312 312 313 314 315 315 315 316 317 317 318 319 320 321 323 324 325 324 324 324 324 325 327 327 326 325 324 324 324 326 327 326 325 324 323 321 319 317 315 316 318 319 317 315 313 312 310 309 309 309 308 308 307 307 307 307 307 307 307 306 305 305 304 303
309 310 310 311 310 310 309 309 310 311 311 311 312 312 312 311 311 310 310 310 310 310 311 311 312 312 313 313 313 314 315 315 317 318 319 320 321 322 323 323 324 324 323 323 323 323 322 322 322 322 323 323 323 322 321 320 318 315 314 314 315 316 316 315 313 312 311 310 310 309 309 308 308 308 308 308 308 308 307 307 306 306 305 305 304
307 308 309 309 310 309 309 309 309 310 310 310 310 310 310 310 309 309 308 308 309 309 309 310 310 310 310 311 311 311 312 312 313 314 315 315 316 317 319 319 320 320 320 320 320 320 320 320 320 319 319 319 318 318 317 316 314 313 313 314 314 314 313 312 311 310 310 310 309 309 309 309 309 308 308 308 307 307 307 307 306 306 305 305 304
305 306 307 307 308 308 308 308 307 308 308 309 309 309 308 308 308 308 307 307 307 308 308 308 308 308 308 309 309 310 310 311 311 312 313 313 314 315 315 316 316 317 317 318 318 318 318 318 317 317 317 316 316 315 315 314 313 313 313 313 312 312 311 310 310 310 310 309 309 309 309 309 308 308 308 308 307 307 307 306 306 306 306 305 303
303 304 304 305 306 306 307 307 306 306 306 307 307 307 307 307 307 306 306 307 307 307 307 307 307 307 307 307 308 308 309 309 310 311 311 312 312 312 313 313 313 313 314 314 314 315 315 315 315 315 314 314 314 313 313 312 312 313 313 312 311 311 311 310 310 310 310 309 310 309 309 308 308 308 308 307 307 307 306 306 306 305 305 304 302
301 302 302 303 304 305 306 306 306 306 305 306 306 306 306 306 306 306 306 306 306 307 307 306 306 306 307 307 307 308 308 308 309 309 309 310 309 309 310 310 310 310 310 310 311 311 312 312 312 312 312 312 312 311 311 311 311 311 311 311 311 311 311 311 310 310 310 310 310 310 309 308 308 308 307 307 307 306 306 306 305 305 304 302 300
Wind_Speed
50 56 58 54 50 50 51 51 51 50 49 49 50 49 45 42 40 40 39 37 34 34 35 37 38 39 39 38 36 36 36 36 38 39 39 40 40 41 41 41 41 39 37 35 34 34 33 33 32 32 31 31 31 31 31 31 32 33 34 35 35 34 32 31 32 31 30 28 27 25 22 20 20 21 21 21 22 21 20 21 22 21 20 17 14
45 45 51 54 53 51 50 51 52 52 51 51 51 50 48 45 42 42 42 40 37 36 35 36 38 40 41 40 38 37 37 37 38 39 40 41 41 42 43 43 42 42 40 39 37 36 35 34 34 33 32 33 32 32 31 31 31 33 34 35 36 34 32 30 31 30 29 29 28 27 25 23 21 22 22 22 21 20 21 22 22 20 18 16 13
50 44 42 45 49 52 52 52 53 54 53 52 52 51 50 48 45 44 43 42 40 39 38 37 39 41 42 42 41 40 39 38 39 39 40 42 43 43 44 44 44 44 43 41 39 38 37 36 35 34 33 34 34 32 31 30 31 32 33 34 34 33 30 30 30 29 28 28 28 28 27 25 23 22 22 21 20 20 21 21 20 19 18 15 12
53 50 47 44 43 45 50 53 53 54 54 54 53 53 52 49 48 47 45 44 43 42 41 40 40 42 44 44 43 43 41 39 40 41 41 42 43 44 44 45 45 46 45 44 41 40 39 38 37 36 35 35 34 33 32 31 31 32 32 32 32 32 31 30 30 30 28 28 28 27 26 24 23 22 21 20 20 22 22 21 20 19 17 15 12
52 51 50 51 49 45 45 49 52 53 53 53 52 51 50 49 49 48 47 46 45 45 44 43 43 44 45 45 45 45 43 41 40 41 42 43 44 45 46 46 46 47 47 46 43 41 40 40 38 37 36 36 35 34 33 32 31 31 31 30 30 30 30 31 30 29 29 30 29 27 25 23 21 21 21 21 22 23 23 22 20 19 17 16 14
51 48 45 49 53 51 47 45 48 51 51 51 50 50 49 49 49 49 48 47 47 47 47 46 45 46 46 45 45 46 45 43 42 41 42 43 44 45 47 47 47 47 48 47 45 43 42 41 39 38 38 37 36 35 33 32 32 32 31 29 29 29 30 30 30 29 30 31 30 29 26 24 22 22 22 22 23 23 22 20 19 18 17 16 14
46 47 44 42 43 47 48 47 48 51 50 48 48 48 49 49 49 48 47 47 47 48 48 48 47 47 46 46 46 47 47 46 44 42 42 43 44 46 47 48 48 47 47 47 46 45 43 42 41 40 39 38 38 36 33 32 33 34 33 30 29 29 30 30 29 29 30 30 30 29 27 24 23 22 22 22 23 23 21 20 19 18 17 16 15
34 40 42 40 39 41 46 49 54 54 50 46 45 47 47 48 48 47 46 47 47 48 48 49 48 48 47 46 47 48 48 48 46 44 44 44 45 46 48 49 49 48 47 46 46 46 45 43 42 42 40 39 38 36 33 32 33 35 34 31 31 31 30 30 29 29 30 30 29 28 25 24 23 23 23 24 25 24 22 21 20 17 16 15 15
22 27 31 33 35 39 43 48 54 56 52 46 44 44 45 46 46 45 45 46 47 48 49 49 49 49 48 47 48 49 49 49 48 47 46 45 45 47 48 49 49 49 47 45 45 45 45 45 43 42 41 39 38 37 34 32 32 34 33 32 31 31 31 31 31 31 30 30 29 28 26 25 24 24 25 26 25 24 21 19 19 17 16 16 17
15 16 17 16 18 26 36 45 51 54 51 45 42 42 43 43 44 44 45 45 46 47 48 49 50 51 50 49 49 50 51 51 51 49 48 47 46 46 48 49 50 49 48 46 45 45 45 45 44 43 41 40 38 37 34 32 32 32 32 32 33 33 34 33 33 32 31 30 30 30 29 28 26 25 25 25 23 21 19 18 18 18 18 18 19
12 12 12 10 12 18 27 39 49 51 46 41 40 41 41 42 43 44 44 44 45 47 48 49 51 52 52 52 51 51 52 52 51 51 50 49 47 47 48 49 50 49 48 47 46 45 45 45 44 43 41 41 39 37 35 33 32 32 33 34 35 37 37 36 34 33 31 30 30 30 30 29 27 25 24 23 22 20 18 18 18 19 19 19 18
10 10 9 9 12 19 27 36 44 45 41 40 41 41 42 43 44 45 46 45 45 46 48 49 51 52 53 54 54 53 51 51 52 51 51 51 49 48 48 49 50 50 49 48 47 46 45 45 44 43 42 41 40 38 36 35 33 33 33 34 35 37 37 36 33 32 30 28 28 29 29 28 26 25 24 23 22 20 18 17 18 19 19 18 17
11 10 7 6 7 13 20 28 34 38 39 40 41 41 43 45 45 46 47 47 47 48 49 50 51 53 54 55 56 55 52 50 52 53 52 52 51 49 48 49 50 50 49 48 47 46 45 45 44 43 42 41 40 38 37 36 34 34 35 35 35 36 35 32 30 29 28 27 27 28 26 25 25 24 23 22 21 20 19 19 19 18 17 16 13
15 13 11 10 9 8 10 14 20 26 32 36 40 42 44 46 47 48 48 48 48 49 50 51 52 53 55 56 57 57 54 50 51 53 53 52 52 51 49 49 50 50 50 48 46 44 44 45 44 42 42 42 41 40 38 36 36 36 36 36 35 34 32 30 30 29 28 27 28 27 25 24 23 22 21 21 21 20 20 19 17 15 14 13 11
21 18 17 16 15 14 12 11 13 17 22 28 35 41 44 46 47 49 50 51 52 51 52 53 54 54 55 56 57 59 57 52 51 53 53 53 53 52 50 49 50 51 51 50 48 44 42 44 44 42 41 41 41 40 38 37 37 37 37 36 34 33 31 30 30 30 29 28 28 27 25 23 22 20 20 21 20 20 19 17 14 13 13 12 12
25 25 23 21 20 20 17 15 15 17 18 21 27 34 40 43 45 46 47 49 52 54 54 55 55 55 56 56 57 60 59 54 51 53 53 53 53 52 51 50 51 52 52 52 50 46 42 43 44 42 40 40 40 39 38 38 37 37 36 35 34 34 32 30 29 29 29 29 28 27 25 24 22 21 21 21 20 20 20 18 16 16 15 15 14
27 28 28 26 25 24 24 23 21 20 21 21 23 26 31 36 40 43 45 46 48 52 55 56 55 55 56 58 58 59 60 56 52 53 53 54 54 53 52 51 51 53 53 53 52 49 45 44 45 43 40 39 39 38 37 37 37 36 35 35 35 35 33 31 30 29 29 29 29 28 26 25 23 22 21 22 22 22 22 21 20 19 17 16 15
24 27 28 28 27 27 28 28 27 25 25 25 25 25 27 30 33 38 44 48 49 49 51 53 55 56 57 58 59 59 59 57 54 53 54 54 55 54 53 52 52 53 54 53 52 51 48 45 45 45 42 38 36 37 37 37 36 36 35 35 35 36 35 33 31 30 30 30 30 29 27 25 24 23 23 23 23 24 24 22 20 19 18 17 16
22 24 25 26 27 27 27 28 29 28 27 28 28 27 27 29 31 34 40 46 51 51 49 47 50 53 56 57 58 58 57 56 54 54 54 55 55 54 53 52 53 54 54 54 53 52 50 48 47 47 44 38 35 35 36 37 36 36 35 35 37 37 36 34 32 31 31 32 30 29 28 27 26 25 24 24 24 24 23 21 20 19 19 18 16
19 19 21 23 24 25 26 27 28 28 27 27 28 28 28 28 30 32 35 40 45 50 51 49 47 49 51 54 55 56 55 54 54 54 55 55 55 54 52 52 54 55 55 55 54 53 52 51 50 49 47 41 35 33 34 35 36 36 36 36 38 37 35 34 33 32 31 31 30 29 29 28 28 28 27 25 25 25 23 22 21 20 20 18 18
16 17 19 20 22 23 24 25 26 27 27 27 27 27 26 26 28 31 33 35 39 45 50 52 52 51 51 51 52 55 55 54 53 54 54 54 55 54 52 53 55 56 55 55 55 54 54 54 53 51 49 43 37 34 33 33 34 36 38 37 36 35 33 33 33 33 32 32 30 30 30 30 29 29 29 27 26 26 25 25 23 21 20 19 18
19 20 20 21 23 24 24 25 27 28 28 29 28 25 24 25 27 29 31 33 37 42 45 49 51 52 52 51 50 54 56 54 53 52 52 53 55 55 54 54 55 56 55 56 56 57 56 55 54 52 49 43 39 36 34 32 33 36 39 37 35 33 32 32 32 34 34 33 32 32 32 31 31 31 31 29 28 28 27 26 24 22 20 19 18
21 21 20 22 25 27 27 27 28 28 28 29 30 29 29 29 30 30 30 32 35 40 43 45 47 49 51 52 51 53 56 57 55 53 51 52 54 55 55 55 55 55 57 58 58 58 57 55 54 53 49 43 40 39 37 34 34 36 39 39 36 33 32 32 33 35 35 34 34 35 34 33 32 32 32 31 30 29 28 27 24 21 19 18 17
19 20 21 24 26 28 29 29 27 26 26 28 30 31 31 31 30 29 29 30 33 38 41 43 46 47 49 52 52 50 51 53 53 53 53 52 52 53 54 55 55 56 57 59 59 58 57 56 55 53 49 44 41 40 39 37 36 36 39 41 37 34 34 34 35 36 36 36 37 37 36 34 33 32 31 30 29 28 27 25 22 19 18 18 17
22 23 24 26 28 30 30 28 27 27 27 29 30 31 31 31 30 29 28 28 32 36 39 43 46 47 47 49 51 50 49 48 50 54 55 53 51 51 52 52 54 56 57 58 59 59 58 57 55 53 48 43 41 40 40 40 38 37 40 42 39 35 35 36 36 37 38 39 39 38 36 34 33 30 28 27 28 28 27 25 22 19 19 18 17
25 26 27 30 32 33 30 27 27 29 30 31 32 33 34 34 33 32 30 28 30 34 38 42 45 45 45 46 48 51 51 50 50 53 54 53 52 52 51 51 53 55 57 57 58 59 59 57 56 55 50 44 42 42 42 42 40 39 42 44 40 36 36 37 37 39 40 39 38 37 35 33 31 29 28 28 28 28 26 24 22 21 20 19 18
27 28 31 32 33 32 29 28 29 31 32 33 34 36 37 37 37 36 33 31 30 33 38 42 45 46 46 46 46 48 50 50 48 48 52 54 55 54 52 51 52 54 56 58 57 58 59 58 56 55 50 45 44 45 45 44 42 42 45 45 41 37 37 37 37 39 40 38 37 36 34 32 30 29 28 28 28 27 25 24 23 21 20 19 17
30 31 32 32 31 29 28 29 30 32 32 33 35 37 38 39 39 38 37 35 34 35 39 43 47 48 48 47 47 48 50 51 49 47 48 51 55 57 55 52 52 53 55 57 58 58 58 57 54 51 48 46 46 46 46 46 46 46 47 46 41 38 36 36 37 39 38 36 36 36 34 32 31 29 28 28 27 26 25 24 22 20 19 18 17
28 29 30 30 29 28 27 28 28 29 31 32 34 36 37 37 37 37 36 35 35 35 39 43 47 48 46 44 45 49 52 52 50 48 45 44 50 58 59 55 52 52 51 53 56 57 57 55 53 50 48 47 46 46 47 48 48 48 48 45 41 39 38 38 39 39 38 36 36 36 34 32 31 29 28 28 27 26 25 25 24 21 20 20 19
22 23 25 26 25 24 24 25 26 26 27 28 29 31 31 31 31 33 34 34 33 34 37 40 43 45 43 41 41 45 49 48 45 44 45 45 48 55 58 55 51 50 49 51 55 58 58 56 55 52 50 48 47 47 49 49 49 49 48 45 43 41 40 39 39 38 37 36 36 35 34 32 31 29 29 28 27 26 27 27 25 23 23 23 21
14 16 18 20 21 21 21 22 23 22 22 22 22 24 25 25 25 27 30 32 33 34 36 37 40 42 43 41 40 40 43 44 41 39 41 44 47 52 56 54 50 49 49 51 54 58 59 58 57 54 52 50 49 49 50 50 49 49 49 48 46 44 42 39 38 38 38 37 36 35 33 32 30 29 29 28 27 28 29 27 25 23 23 23 20
6 10 13 16 18 18 18 19 20 20 19 19 19 20 23 24 24 24 25 28 31 34 35 36 38 40 42 43 43 41 39 40 40 39 39 41 43 48 54 55 52 49 49 51 54 58 58 57 58 57 55 53 52 52 51 51 50 50 51 50 49 46 43 41 39 38 38 37 36 35 34 32 30 29 28 27 27 28 29 28 25 24 23 21 19
6 9 12 15 15 15 15 15 16 18 18 18 19 20 21 22 23 23 23 25 28 32 35 35 36 37 40 43 44 44 42 39 40 42 43 43 43 45 51 53 50 47 47 50 55 59 58 58 60 61 58 56 55 54 52 52 51 51 52 52 50 48 47 43 38 35 35 35 35 35 33 31 29 28 27 27 27 28 29 28 26 25 24 22 19
10 8 11 14 15 16 16 15 15 17 18 18 19 21 21 21 22 23 24 26 28 31 34 35 35 36 39 41 43 44 45 44 43 44 47 48 47 46 47 48 47 45 45 49 54 57 57 59 62 62 58 56 56 54 53 52 52 53 53 53 51 50 47 42 36 34 35 35 35 34 32 31 30 28 27 27 28 29 29 28 27 27 26 24 22
15 9 7 9 11 13 14 13 13 14 15 17 18 20 21 21 23 25 26 27 28 30 32 33 33 34 36 39 41 43 44 45 45 46 48 50 50 47 44 45 46 47 47 49 53 54 56 59 62 61 58 57 56 54 52 53 54 54 54 53 51 51 48 42 37 35 35 34 35 35 33 32 31 29 28 28 29 30 30 29 29 29 27 26 25
18 14 9 7 7 8 10 11 11 12 12 14 16 18 20 22 25 26 27 27 27 28 30 30 28 28 30 35 39 42 43 42 43 45 47 48 49 48 46 46 47 47 48 51 54 55 57 60 61 59 57 56 54 53 52 53 55 55 54 53 53 52 47 40 36 33 33 35 37 37 35 35 33 31 30 30 30 31 30 30 30 30 29 27 26
19 18 15 12 9 7 6 7 9 10 12 13 15 17 20 23 24 24 24 25 24 25 26 26 26 26 28 31 36 41 43 41 42 45 46 45 46 49 49 48 47 47 49 53 55 55 55 57 59 58 56 54 53 52 53 54 56 55 54 55 55 50 40 35 34 33 33 36 39 39 39 38 36 34 33 32 32 31 30 30 30 31 29 28 26
20 20 18 16 14 13 10 7 7 9 11 13 15 17 19 22 22 19 19 20 20 20 21 23 24 26 28 29 31 36 41 42 44 47 48 48 48 49 50 48 47 47 50 54 54 53 53 56 58 59 57 53 51 51 53 55 55 54 55 56 52 42 36 36 38 36 34 35 38 39 40 40 38 37 36 35 34 33 32 31 32 31 29 27 27
20 20 20 19 18 18 16 13 11 10 11 13 14 15 16 18 19 18 17 17 17 17 19 20 22 24 27 29 30 32 37 42 45 48 49 50 50 50 50 49 48 48 51 55 54 52 53 57 59 58 55 51 50 50 52 53 54 54 54 52 45 38 37 40 40 37 35 36 37 38 39 39 38 38 38 37 37 35 33 33 33 32 30 28 27
19 20 21 21 21 21 20 19 16 14 13 13 14 14 14 14 15 16 17 16 15 16 18 21 23 24 25 27 30 32 35 39 44 47 50 51 51 51 51 50 49 50 53 55 55 54 56 58 57 54 52 50 50 49 49 51 52 51 50 48 43 39 39 41 40 38 37 36 36 38 39 38 36 36 38 38 38 36 33 32 32 32 31 29 28
20 20 20 21 22 21 21 20 18 16 14 13 12 12 12 12 12 13 15 15 15 16 18 21 24 25 24 25 28 31 34 37 40 45 49 51 51 51 52 51 50 51 54 55 55 56 57 57 55 51 48 47 46 46 46 48 49 49 48 46 43 40 40 41 41 39 36 35 35 37 37 36 35 35 36 37 37 35 33 31 30 31 31 30 29
20 20 19 20 21 21 20 19 18 18 17 15 12 11 10 10 9 9 11 12 12 13 15 17 19 21 22 24 26 28 31 35 38 43 47 50 50 51 52 52 52 53 54 55 55 56 57 55 51 46 42 40 40 42 44 47 49 49 48 46 43 41 42 42 40 36 34 34 34 34 34 34 34 34 34 33 33 32 30 29 29 30 31 31 30
17 18 17 17 18 19 19 18 17 17 17 17 16 14 11 9 7 6 7 9 9 8 9 10 12 14 17 19 22 23 25 28 34 40 45 47 48 49 51 53 55 55 55 54 54 53 52 49 45 41 38 36 37 39 41 43 46 47 48 47 43 41 41 40 36 34 35 35 34 33 32 32 32 32 32 32 31 29 27 26 27 28 30 30 30
16 15 15 15 16 17 17 17 17 16 16 16 16 16 14 10 7 5 5 5 6 6 6 6 7 8 10 12 16 18 19 21 25 31 36 39 43 47 50 51 51 52 52 50 48 45 44 43 43 42 39 38 38 39 40 42 43 45 46 45 42 40 40 38 35 34 34 33 32 30 30 30 30 31 32 32 30 28 26 25 24 25 27 28 29
17 14 12 13 14 16 17 17 17 16 16 16 16 16 16 14 10 8 6 6 6 5 4 5 5 4 4 6 10 14 16 16 18 22 25 30 36 42 45 44 43 43 44 43 40 39 39 40 42 41 39 37 39 40 41 42 42 43 42 40 37 37 37 36 33 32 31 30 29 28 28 29 29 30 31 30 29 27 26 24 22 22 23 25 26
17 13 10 10 12 15 16 17 17 17 17 17 17 16 16 16 13 10 9 8 8 8 6 5 5 4 2 2 4 8 11 12 13 16 19 23 27 31 33 34 34 34 36 37 37 37 38 39 39 39 37 37 38 39 40 41 41 39 36 34 33 33 33 31 29 29 30 30 29 29 29 29 28 28 27 27 26 26 26 25 23 21 21 22 22
15 10 7 7 9 11 13 13 15 15 16 17 17 17 17 16 14 14 13 12 11 11 10 9 7 5 4 4 3 3 5 7 8 10 12 15 18 21 23 26 27 28 30 33 35 36 37 38 39 39 38 38 39 39 39 38 37 33 30 29 30 31 32 30 28 29 29 29 28 28 28 27 26 25 24 24 25 25 26 27 25 23 21 20 20
14 10 7 7 8 10 11 12 13 14 14 15 16 16 17 16 16 17 17 17 17 17 16 15 13 11 9 8 6 4 2 2 3 4 5 7 9 12 14 17 20 23 26 28 30 32 33 35 36 37 37 37 37 36 35 33 30 27 26 27 28 29 29 28 28 28 28 26 26 27 26 25 24 25 25 24 24 26 27 28 27 24 22 20 20
13 9 7 8 9 10 10 12 14 14 14 14 15 16 16 17 18 18 19 19 19 19 18 18 17 16 13 11 10 7 6 4 2 1 2 3 5 6 8 10 13 16 19 22 24 25 27 28 30 31 31 31 31 30 30 27 25 23 24 25 25 25 25 26 27 27 26 25 24 24 23 23 24 24 23 22 23 25 27 27 26 24 23 22 22
12 9 8 8 10 11 10 11 14 15 15 14 14 15 16 16 17 17 17 17 18 18 18 18 19 18 17 16 14 13 12 10 9 7 6 5 6 6 7 6 7 8 11 13 15 17 18 19 21 22 24 24 25 24 23 21 21 22 24 24 24 25 25 26 26 26 24 24 23 22 22 23 24 22 20 20 22 24 26 26 25 24 23 23 23
11 9 8 8 9 10 11 12 14 15 16 15 14 14 14 15 15 16 16 17 17 17 17 18 18 19 19 19 19 18 16 15 14 13 11 10 9 9 7 6 5 5 6 7 8 9 11 13 15 17 18 19 20 19 18 19 21 24 25 26 25 26 27 26 26 25 25 24 23 22 23 24 24 22 20 19 21 23 24 25 24 24 23 23 24
Wind_Direction
228 226 224 225 225 225 226 225 224 224 225 225 224 224 224 226 227 228 229 231 233 234 234 233 233 233 233 232 232 231 231 232 233 233 235 236 238 239 238 235 234 236 238 239 241 243 244 245 245 246 244 243 242 241 240 239 239 240 240 241 243 243 244 247 251 258 263 265 266 266 266 268 265 258 252 246 244 244 244 244 247 254 267 276 280
236 233 229 227 227 227 227 227 226 225 226 227 227 226 226 227 228 229 230 232 234 235 235 235 235 236 236 235 234 233 233 233 233 233 235 236 238 239 239 237 235 235 237 238 239 241 244 244 245 245 244 244 243 243 243 242 242 242 242 242 242 243 244 245 248 254 258 260 261 261 261 265 264 257 250 245 243 242 242 242 246 257 268 274 279
237 238 235 230 229 229 228 227 227 226 226 226 227 228 228 228 229 230 232 234 235 236 236 236 236 237 238 237 236 235 234 234 234 234 235 237 238 238 238 238 237 237 236 236 237 240 243 244 244 244 244 244 244 244 244 243 244 245 245 244 244 244 243 242 244 249 254 257 258 257 259 262 263 257 248 243 241 240 240 242 249 260 267 273 280
234 237 238 235 233 231 229 227 226 225 226 227 227 228 228 229 229 230 233 235 236 236 236 235 236 238 239 239 238 236 236 236 236 236 237 239 240 240 239 239 240 239 239 237 236 238 241 243 244 245 244 244 245 244 244 244 246 245 244 243 244 244 243 240 241 246 251 255 256 258 261 263 262 255 243 235 234 234 237 242 251 261 266 272 280
235 237 238 238 238 236 233 230 227 225 226 228 229 229 230 231 231 232 233 235 236 237 236 235 236 238 239 239 239 238 237 237 238 239 239 240 241 242 241 241 242 242 242 240 237 237 240 243 245 245 245 245 245 245 245 247 246 243 241 240 240 240 239 238 240 246 250 253 256 257 258 256 253 246 235 231 230 230 234 242 251 260 264 269 278
238 238 237 235 236 237 236 234 230 228 228 229 230 231 232 232 233 234 236 237 237 237 236 236 236 237 238 239 240 240 239 238 239 241 241 241 242 243 243 243 243 244 244 242 239 236 239 243 245 245 246 247 247 246 248 249 246 242 239 238 237 237 237 238 241 246 248 251 254 255 254 249 244 238 232 231 232 234 239 247 253 256 259 265 276
239 238 236 233 234 236 237 239 237 233 231 232 233 233 233 234 234 236 238 238 237 237 237 237 237 238 239 240 241 241 240 239 240 242 243 243 243 243 243 243 243 244 244 243 241 238 238 241 243 245 246 248 249 249 250 251 247 242 240 238 237 238 239 241 243 244 246 249 251 251 250 245 238 235 233 232 234 238 244 249 251 252 255 263 271
240 238 236 235 237 236 236 241 242 237 235 235 235 235 236 236 237 238 238 238 238 238 238 238 238 238 239 240 242 242 241 240 241 242 244 244 244 244 243 242 242 243 243 243 242 241 239 240 242 245 246 248 250 251 253 252 248 243 241 240 239 240 242 244 245 246 248 250 249 247 245 241 235 232 231 231 234 240 245 248 251 252 253 259 266
242 238 233 232 237 239 240 244 243 238 235 235 235 236 237 238 239 240 239 239 239 239 238 238 238 239 239 240 242 242 241 241 242 244 244 244 245 244 242 242 242 242 242 242 243 242 241 240 241 244 246 248 250 252 254 253 250 246 244 242 241 242 243 245 247 249 251 250 246 241 239 238 236 231 231 233 239 245 248 250 251 249 248 254 264
245 245 239 237 245 248 248 247 242 236 233 235 237 239 240 240 241 241 240 240 240 238 238 237 238 238 239 240 241 241 241 243 245 246 246 246 246 245 243 242 241 241 241 242 243 243 243 241 241 242 245 247 248 251 252 252 250 249 248 248 247 246 246 248 250 251 250 246 242 238 236 236 235 235 236 240 243 245 245 247 247 244 244 252 261
243 252 257 262 264 262 256 249 242 236 236 239 242 243 243 243 242 241 241 241 241 239 237 236 237 238 240 240 240 241 243 245 247 247 246 247 246 245 244 242 241 240 240 242 244 244 244 243 242 241 243 244 245 248 249 249 249 248 248 249 251 251 251 252 252 250 246 241 239 238 238 238 238 239 240 241 242 242 243 246 245 242 245 252 256
231 240 249 249 252 261 262 255 248 245 246 248 248 247 247 245 244 242 241 240 241 239 237 237 238 238 239 239 240 241 243 245 247 247 247 247 246 245 245 243 241 240 240 241 243 245 246 244 243 242 241 242 243 245 247 247 247 247 248 250 252 251 250 248 248 247 244 241 238 237 240 242 242 242 241 241 241 240 242 244 243 244 249 252 255
224 225 223 220 238 253 256 255 255 256 257 256 254 253 250 247 246 245 243 242 240 238 237 238 238 238 239 239 239 241 242 244 246 247 247 248 246 245 244 244 243 242 241 241 242 245 246 244 243 242 241 242 242 244 245 246 246 246 249 252 250 246 244 244 245 246 246 244 243 241 243 244 245 246 247 245 240 237 238 240 241 246 250 251 258
241 235 235 238 246 253 256 259 261 261 261 260 258 256 253 251 250 248 247 245 241 238 237 237 237 238 239 239 239 240 241 243 245 246 247 248 246 244 244 244 244 244 243 243 243 245 246 245 244 242 241 242 242 244 245 246 246 247 251 252 247 240 241 244 245 243 241 241 243 244 246 248 249 251 250 244 239 237 239 240 243 249 252 255 263
252 248 250 252 254 258 265 275 276 271 267 263 259 255 252 251 250 248 247 246 243 241 240 238 237 238 239 238 238 239 241 243 245 246 247 247 246 244 243 243 243 244 244 244 244 245 246 247 246 243 242 242 243 245 247 247 248 250 253 254 247 241 242 244 243 241 239 239 240 242 244 246 247 247 243 239 239 241 244 246 251 254 253 255 261
258 257 256 257 258 259 261 269 280 281 277 271 265 260 255 251 249 247 246 245 245 243 241 239 238 238 238 237 237 238 241 243 244 246 247 247 245 243 242 242 243 243 244 244 244 243 245 248 248 246 245 245 245 247 248 249 250 252 255 255 249 243 243 244 242 239 238 239 241 242 244 244 241 237 234 233 235 237 238 239 241 244 246 250 257
255 256 256 256 259 261 261 264 273 281 279 274 270 267 263 259 256 252 250 248 246 242 239 238 238 238 237 236 236 237 239 242 245 246 247 246 244 242 241 241 241 242 243 243 244 243 243 246 248 247 246 246 247 246 247 248 250 252 255 255 250 245 244 242 239 236 235 236 239 241 242 241 237 233 231 231 232 232 231 232 237 242 244 249 256
249 250 252 255 258 262 263 263 268 278 280 275 271 270 269 266 262 257 254 252 250 246 242 239 238 239 238 236 236 236 239 242 245 245 246 246 244 242 241 241 240 241 241 242 243 243 242 245 248 248 247 246 247 246 245 247 249 250 253 255 251 246 244 241 237 234 231 232 234 236 238 237 233 231 231 231 232 232 233 237 242 244 244 249 257
255 250 251 254 258 261 261 260 265 275 278 274 272 273 274 272 268 260 256 254 253 252 249 244 240 239 239 238 237 237 239 242 244 244 245 246 245 243 242 240 239 239 239 239 240 241 241 243 246 248 247 246 246 245 245 246 247 249 253 255 252 248 245 242 239 235 232 231 232 233 235 233 231 231 233 233 232 233 236 241 242 242 245 251 255
265 259 256 257 259 259 258 259 264 272 275 273 270 270 273 275 273 267 261 258 257 256 255 252 248 244 242 240 238 237 239 241 243 244 245 245 245 244 241 239 239 238 238 237 238 239 240 241 243 245 244 243 243 245 245 246 247 249 252 255 255 252 248 244 241 238 236 234 233 234 234 232 231 232 233 232 231 231 233 236 239 244 249 252 253
272 270 268 264 263 261 259 261 265 268 271 272 269 267 271 275 276 275 271 266 263 260 256 253 252 250 248 245 241 240 241 241 242 244 245 245 246 244 241 241 240 238 237 237 237 239 240 241 241 241 240 239 239 242 244 245 247 250 252 256 260 258 252 246 243 241 238 236 235 234 233 232 231 233 234 233 231 230 232 235 241 248 250 251 252
275 272 271 266 265 266 264 262 265 266 266 268 268 268 273 277 278 278 277 272 268 265 260 256 253 251 250 248 245 243 243 243 243 244 245 246 246 244 243 243 243 240 237 236 238 240 242 242 242 241 240 239 240 242 243 242 245 250 253 256 260 258 251 246 244 242 239 236 234 232 231 231 230 232 233 233 232 232 234 238 244 250 251 250 249
266 262 262 263 266 269 268 265 266 267 266 266 267 265 266 272 276 277 275 273 269 267 265 260 255 253 252 251 249 247 245 243 242 244 245 245 245 244 244 244 244 241 238 238 240 242 241 242 243 242 241 241 243 244 242 240 242 249 253 254 255 253 248 244 241 240 238 236 234 231 231 230 230 232 233 234 234 235 237 242 246 250 250 248 247
261 260 260 264 267 268 267 266 267 268 265 264 264 262 263 269 274 274 271 269 265 264 263 259 254 253 254 252 250 249 245 240 240 244 247 247 245 243 243 244 244 243 241 241 241 242 242 243 244 244 242 242 245 245 243 242 243 247 252 252 250 248 244 241 239 238 238 236 234 232 231 229 229 232 235 238 239 239 240 244 246 247 247 245 244
259 260 261 264 265 265 267 267 267 265 261 259 259 261 265 269 272 271 269 265 261 260 260 256 252 250 249 248 248 249 248 245 244 245 246 247 247 246 244 244 244 243 243 242 242 242 242 243 245 245 244 245 246 245 243 244 245 247 249 249 246 243 239 238 237 236 235 234 233 232 231 230 230 233 238 242 241 239 239 241 241 240 239 235 231
258 259 262 263 263 263 264 264 263 259 256 255 257 262 266 269 272 272 269 264 259 257 257 256 253 250 247 247 248 250 250 250 248 246 244 244 246 247 245 243 243 244 243 242 242 242 242 243 245 245 244 244 246 245 242 241 242 245 245 244 242 239 236 235 235 234 234 234 233 232 231 231 230 234 239 240 237 235 234 234 235 234 231 225 220
260 260 262 263 264 261 257 256 257 257 257 258 261 265 267 269 271 272 269 264 259 255 252 252 251 249 248 247 248 248 248 247 247 247 245 244 244 245 243 240 240 241 240 237 238 239 240 242 243 243 241 240 241 241 239 236 237 240 241 240 238 235 234 234 233 233 234 232 229 229 230 229 229 233 236 233 229 227 227 228 229 227 220 215 215
259 260 260 261 262 258 254 254 255 256 259 261 264 266 267 268 268 269 268 265 261 256 253 250 248 247 247 247 247 245 242 242 243 242 244 245 245 244 242 238 237 238 236 234 233 234 235 236 237 236 233 232 232 234 234 233 234 236 237 237 234 232 231 232 231 231 230 227 226 228 228 226 227 230 230 225 223 222 221 219 216 212 208 210 215
258 261 263 263 262 258 256 256 256 257 261 263 265 267 267 267 268 267 266 263 261 259 257 254 252 251 250 250 249 244 240 241 243 243 243 245 245 243 242 239 237 236 235 234 233 232 230 230 230 229 228 227 228 231 233 232 232 233 233 234 233 229 227 227 228 227 224 222 224 226 226 224 226 226 223 221 221 219 215 211 206 202 205 212 218
256 261 266 267 264 259 255 255 255 257 260 263 266 268 269 270 271 271 268 264 260 258 259 258 257 256 255 254 254 252 249 250 251 247 243 242 242 243 243 242 240 238 236 233 231 230 229 228 228 228 228 227 228 231 233 232 232 232 231 232 232 229 225 224 224 224 221 221 223 224 224 223 223 221 219 219 217 213 210 207 203 204 208 212 217
248 255 262 262 260 257 256 257 259 259 261 265 269 272 274 273 272 272 272 267 260 257 257 257 256 256 256 256 257 258 257 256 254 248 243 241 241 240 240 241 240 238 236 232 229 226 226 226 227 228 228 229 231 234 235 234 233 232 232 232 231 227 224 223 223 221 219 220 221 222 222 221 220 218 216 214 211 209 207 205 204 207 212 215 219
251 250 251 251 254 258 260 262 266 267 268 272 276 279 280 278 275 275 276 273 265 260 258 258 256 253 254 256 258 259 257 252 247 243 240 241 243 240 238 238 237 234 233 233 230 227 227 227 228 229 228 229 232 234 234 234 234 233 232 232 231 228 225 223 222 219 218 219 220 219 218 217 217 216 213 211 210 208 206 205 206 210 216 220 224
301 274 266 260 261 265 265 264 269 272 273 275 277 277 277 278 281 284 284 278 271 264 258 257 256 253 252 253 255 256 255 251 248 245 241 240 243 241 237 236 235 232 231 229 226 225 228 231 230 229 229 231 232 233 233 234 234 234 234 234 234 232 227 222 219 219 221 223 222 218 216 217 216 214 212 212 210 207 205 206 209 213 217 221 223
335 302 285 279 277 276 275 274 274 276 279 282 282 279 276 276 279 283 284 280 275 266 257 252 252 252 252 252 251 251 251 250 250 251 247 244 243 241 237 234 231 231 232 231 227 225 227 228 229 228 230 232 233 233 233 234 233 234 234 234 234 232 227 221 218 219 221 224 225 221 219 220 218 214 212 211 208 206 206 208 212 215 217 218 219
360 341 308 288 279 275 277 278 278 279 283 286 287 287 284 278 273 275 278 281 280 273 262 253 251 252 254 253 250 248 248 248 250 252 250 247 244 240 232 226 223 223 225 227 227 227 227 227 227 228 229 231 232 232 234 234 234 234 234 234 232 229 223 218 218 218 217 221 225 224 222 222 221 218 214 211 208 207 208 210 214 216 217 218 219
12 5 0 339 305 286 282 281 279 279 279 281 287 291 289 281 276 275 276 277 279 277 268 259 254 253 254 252 250 249 249 250 253 253 251 248 244 237 230 225 224 225 226 225 225 225 227 227 227 227 229 230 231 233 235 235 234 234 234 232 228 223 218 216 220 220 217 218 223 225 225 225 223 221 218 213 210 211 212 214 217 218 219 220 221
20 12 11 7 353 335 314 291 280 277 274 274 278 281 281 281 280 279 276 275 277 279 276 270 266 263 257 250 247 247 247 248 250 250 248 245 241 237 233 231 231 232 232 230 227 224 224 224 224 225 228 230 230 232 233 233 233 232 231 229 224 218 216 220 225 223 219 217 217 219 224 226 225 223 221 216 213 213 215 217 220 221 221 222 221
27 16 10 9 10 7 1 346 319 298 287 282 279 276 276 279 282 281 277 274 275 280 281 278 277 276 269 260 252 247 244 242 241 241 239 236 234 232 232 234 236 236 235 232 229 225 223 221 221 224 227 228 230 232 233 231 230 230 231 229 224 218 219 225 226 222 219 218 214 213 218 223 224 224 222 219 216 216 216 218 220 220 220 221 222
31 22 13 12 16 16 12 5 351 329 312 304 298 293 287 283 281 278 273 270 270 274 278 281 281 280 276 271 264 255 245 238 235 235 235 233 230 229 228 231 234 236 235 232 228 224 221 221 222 223 225 229 232 234 234 232 231 231 232 230 224 218 220 226 225 221 218 218 214 212 214 219 222 221 220 219 219 219 219 220 221 221 220 220 222
29 27 20 16 18 19 17 13 5 351 335 324 317 312 304 294 286 279 274 270 267 267 272 279 282 280 278 273 269 263 255 245 239 236 236 234 230 226 224 226 230 231 230 228 225 223 221 222 223 224 226 230 234 235 234 234 233 233 233 231 226 222 223 226 225 221 217 216 214 213 215 218 219 219 219 219 220 221 222 223 223 221 221 222 223
24 27 26 22 20 19 18 16 13 7 357 343 331 323 316 309 302 289 278 272 267 262 265 272 276 276 276 273 269 266 262 256 247 240 237 236 231 226 224 224 225 225 225 225 224 224 223 223 223 226 229 232 234 235 235 235 234 234 234 231 227 224 226 227 225 220 216 214 214 215 217 219 219 218 218 218 220 222 223 223 222 222 224 226 226
22 22 25 27 24 21 18 17 16 14 11 6 357 344 330 324 319 298 279 275 273 263 259 265 269 271 271 269 266 263 260 256 250 243 237 233 230 226 224 222 220 220 222 224 225 225 224 223 224 226 228 228 229 231 232 233 234 234 234 231 225 223 225 227 225 220 214 211 212 215 218 219 220 219 217 216 215 216 216 217 219 222 225 226 227
15 14 19 28 30 26 20 18 18 16 14 13 12 4 351 340 334 312 289 287 285 271 260 264 271 272 269 264 259 255 253 251 247 241 235 230 226 222 219 216 215 217 220 222 223 222 221 221 222 222 221 223 226 228 230 232 234 234 234 230 224 221 223 226 222 215 211 209 209 213 218 220 219 216 212 209 209 211 213 216 219 221 223 225 227
5 6 13 23 31 33 27 21 20 20 16 14 14 12 5 357 347 334 322 313 303 289 280 282 284 283 278 268 255 247 245 246 244 239 233 229 226 222 218 214 212 213 215 218 221 222 222 222 222 220 220 224 228 230 231 234 235 235 235 231 223 219 223 224 217 210 208 207 206 209 213 215 214 210 207 205 207 210 213 215 217 218 219 221 222
359 1 9 18 26 33 31 24 20 19 18 17 16 15 13 10 4 355 348 344 340 333 318 308 308 309 297 275 257 249 247 246 242 235 229 224 223 222 220 218 216 215 214 215 219 223 225 225 223 222 223 226 229 231 233 234 235 236 235 231 222 220 224 224 217 209 206 204 200 199 201 203 205 204 203 204 207 211 214 216 215 213 213 215 216
356 356 7 20 24 27 29 27 23 22 21 21 20 20 20 20 19 17 15 8 3 3 1 351 349 354 354 312 260 249 247 246 240 234 228 224 222 222 221 221 222 222 220 218 219 221 222 222 222 223 225 227 228 230 232 233 234 234 231 227 223 224 226 225 217 208 201 196 192 192 193 195 197 198 200 203 207 212 217 219 219 216 215 216 217
355 359 15 33 33 27 27 28 27 25 26 27 28 28 31 34 36 37 38 38 36 33 32 32 33 32 23 9 342 277 254 245 235 229 227 225 223 223 223 223 225 225 223 220 219 219 220 220 220 222 224 225 227 229 231 231 232 230 224 221 223 226 226 220 209 197 190 188 189 191 193 195 198 201 203 207 211 215 219 222 223 223 222 222 224
354 3 24 45 47 39 32 29 28 26 27 31 35 38 41 46 51 52 51 51 50 48 47 47 48 49 47 42 33 16 345 293 242 226 222 220 220 221 224 228 229 227 224 220 219 220 221 222 222 224 225 226 227 229 229 230 228 224 219 220 222 223 220 212 199 188 184 187 191 194 196 201 205 206 207 209 213 216 219 222 224 224 224 226 229
354 2 23 44 53 53 47 42 41 38 32 33 40 45 48 51 54 55 54 52 49 45 43 43 44 46 48 50 50 49 49 52 70 127 161 178 187 192 201 212 221 225 225 225 226 226 227 226 227 227 227 228 228 229 229 227 223 218 215 214 213 210 205 198 190 184 182 186 192 198 202 206 209 211 213 215 215 214 216 219 222 223 225 227 227
360 7 23 42 57 66 66 62 60 55 48 44 46 50 54 57 57 53 51 49 47 44 42 42 43 46 49 53 57 60 62 66 73 85 103 124 139 147 158 173 188 200 209 216 221 223 223 223 224 225 226 226 226 225 222 217 212 207 201 195 190 185 181 180 181 183 184 189 197 205 209 211 213 216 219 219 215 212 213 217 219 221 225 227 222
7 15 28 43 61 74 77 76 72 67 62 59 58 59 63 66 65 61 56 53 51 51 52 50 49 50 52 55 59 60 60 62 68 76 84 93 101 107 113 123 137 151 165 179 189 197 202 205 208 211 213 214 213 210 202 197 195 192 185 178 176 175 174 175 179 184 189 195 202 207 210 212 213 215 216 216 214 213 213 215 218 222 226 224 218